Weather History for Kansas City International, MO

Change the Weather History Date:

Wednesday, January 9, 2013

  Actual Average Record
Temperature  
Mean Temperature 42 °F 28 °F  
Max Temperature 58 °F 38 °F 64 °F (1902)
Min Temperature 26 °F 20 °F -10 °F (1977)
Degree Days  
Heating Degree Days 23 36  
Month to date heating degree days 302 324  
Since 1 July heating degree days 2140 2366  
Cooling Degree Days 0 0  
Month to date cooling degree days 0 0  
Year to date cooling degree days 0 0  
Moisture  
Dew Point 28 °F    
Average Humidity 58    
Maximum Humidity 85    
Minimum Humidity 30    
Precipitation  
Precipitation 0.00 in 0.03 in 1.07 in (1929)
Month to date precipitation T 0.29  
Year to date precipitation T 0.29  
Snow  
Snow 0.00 in 0.20 in 9.50 in (1993)
Month to date snowfall T 1.3  
Since 1 July snowfall 3.7 7.5  
Snow Depth 0.00 in    
Sea Level Pressure  
Sea Level Pressure 30.36 in    
Wind  
Wind Speed 7 mph (SE)    
Max Wind Speed 15 mph    
Max Gust Speed 17 mph    
Visibility 10 miles    
Events      
T = Trace of Precipitation, MM = Missing Value Source: NWS Daily Summary

Daily Weather History Graph

Daily Weather History Graph

Search for Another Location

Airport:

Trip Planner

Search our weather history database for the weather conditions in past years. The results will help you decide how hot, cold, wet, or windy it might be!

Date:

Astronomy

Jan. 09, 2013 Rise Set
Actual Time 7:38 AM CST 5:14 PM CST
Civil Twilight 7:08 AM CST 5:43 PM CST
Nautical Twilight 6:35 AM CST 6:17 PM CST
Astronomical Twilight 6:03 AM CST 6:49 PM CST
Moon 5:18 AM CST (1/9) 3:16 PM CST (1/9)
Length of Visible Light 10h 34m
Length of Day
9h 35m
Waning Crescent, 6% of the Moon is Illuminated
Jan 9
Waning Crescent
Jan 11
New
Jan 18
First Quarter
Jan 26
Full
Feb 3
Last Quarter

Hourly Weather History & Observations

Time (CST) Temp. Windchill Dew Point Humidity Pressure Visibility Wind Dir Wind Speed Gust Speed Precip Events Conditions
12:53 AM 33.1 °F 28.7 °F 26.1 °F 75% 30.22 in 10.0 mi SW 4.6 mph - N/A   Clear
1:53 AM 33.1 °F 26.9 °F 26.1 °F 75% 30.23 in 10.0 mi SW 6.9 mph - N/A   Clear
2:53 AM 32.0 °F 26.4 °F 26.1 °F 79% 30.26 in 10.0 mi WSW 5.8 mph - N/A   Clear
3:53 AM 30.0 °F 23.2 °F 25.0 °F 82% 30.28 in 10.0 mi SW 6.9 mph - N/A   Clear
4:53 AM 32.0 °F 25.6 °F 26.1 °F 79% 30.30 in 10.0 mi West 6.9 mph - N/A   Clear
5:53 AM 28.9 °F 25.2 °F 24.1 °F 82% 30.31 in 10.0 mi WSW 3.5 mph - N/A   Clear
6:53 AM 32.0 °F 26.4 °F 26.1 °F 79% 30.33 in 8.0 mi WNW 5.8 mph - N/A   Clear
7:53 AM 28.9 °F 25.2 °F 24.1 °F 82% 30.38 in 9.0 mi West 3.5 mph - N/A   Clear
8:53 AM 32.0 °F 28.7 °F 28.0 °F 85% 30.41 in 10.0 mi WSW 3.5 mph - N/A   Overcast
9:53 AM 39.0 °F 35.7 °F 30.0 °F 70% 30.43 in 10.0 mi NNW 4.6 mph - N/A   Overcast
10:53 AM 45.0 °F 40.6 °F 30.9 °F 58% 30.43 in 10.0 mi NNE 8.1 mph - N/A   Overcast
11:53 AM 48.9 °F - 32.0 °F 52% 30.41 in 10.0 mi North 8.1 mph - N/A   Mostly Cloudy
12:53 PM 52.0 °F - 32.0 °F 47% 30.38 in 10.0 mi NNE 12.7 mph - N/A   Mostly Cloudy
1:53 PM 55.9 °F - 28.9 °F 36% 30.35 in 10.0 mi NNE 9.2 mph - N/A   Mostly Cloudy
2:53 PM 57.9 °F - 27.0 °F 31% 30.37 in 10.0 mi NNE 5.8 mph - N/A   Mostly Cloudy
3:53 PM 57.0 °F - 26.1 °F 30% 30.39 in 10.0 mi ENE 3.5 mph - N/A   Mostly Cloudy
4:53 PM 50.0 °F - 30.0 °F 46% 30.39 in 10.0 mi SSE 5.8 mph - N/A   Mostly Cloudy
5:53 PM 50.0 °F - 28.9 °F 44% 30.40 in 10.0 mi ESE 9.2 mph - N/A   Overcast
6:53 PM 46.0 °F 42.5 °F 28.9 °F 51% 30.40 in 10.0 mi ESE 6.9 mph - N/A   Overcast
7:53 PM 44.1 °F 40.8 °F 28.9 °F 55% 30.40 in 10.0 mi ESE 5.8 mph - N/A   Overcast
8:53 PM 43.0 °F 38.8 °F 30.0 °F 60% 30.41 in 10.0 mi ESE 6.9 mph - N/A   Mostly Cloudy
9:53 PM 42.1 °F 37.1 °F 28.9 °F 60% 30.40 in 10.0 mi ESE 8.1 mph - N/A   Scattered Clouds
10:53 PM 41.0 °F 35.8 °F 28.0 °F 60% 30.38 in 10.0 mi ESE 8.1 mph - N/A   Scattered Clouds
11:53 PM 42.1 °F 35.2 °F 26.1 °F 53% 30.35 in 10.0 mi ESE 12.7 mph - N/A   Scattered Clouds